sat.trackr.live / text

‹ back to catalog

STARLINK-36797

NORAD 67815 · 2026-032U

PAYLOAD ACTIVE UNKNOWN

§ Identity

Operator
Country
US
Launch date
2026-02-15
Launch site
AFWTR
Launch vehicle
Mass (kg)
RCS (m²)

Purposes: comms

External: N2YO · Heavens-Above · Gunter

§ Orbital elements

Epoch: 2026-09-19T18:30:30.334752Z

Period
93.91 min
Inclination
97.2871°
Eccentricity
0.0001503
Mean motion
15.33454427 rev/d
Perigee alt
464.5 km
Apogee alt
466.5 km
Semi-major
6,843.7 km
B*
3.8428e-4
RAAN
89.1901°
Arg perigee
46.9396°
Mean anomaly
313.1972°
Rev number
3,470

§ Raw data

STARLINK-367971 67815U 26032U   26262.77118443  .00012355  00000+0  38428-3 0  99962 67815  97.2871  89.1901 0001503  46.9396 313.1972 15.33454427 34705

JSON: /api/v1/satellites/67815 · /tle

For live sub-satellite position, see the globe view (requires WebGL).

§ Visibility from observer

Set your observer location to see the next 7 days of passes ≥ 10°. The values pass through the URL so the page stays shareable.

No JS? Fill the form by hand. The geolocation button needs JavaScript.